KC2ASA Weather Reports


Display with metric or nautical units.
time (UTC)temp
F
wind
direction
speed
MPH
gust
MPH
rain 1hr
in
rain 24hr
in
rain mn
in
humidity
%
barometer
mb
20260905223042 72 61 0.0 0.0 0.00 0.00 0.00 78 1010.8
20260905221541 73 61 0.0 1.0 0.00 0.00 0.00 74 1010.7
20260905220041 74 27 0.0 0.0 0.00 0.00 0.00 76 1010.6
20260905214541 74 27 0.0 1.0 0.00 0.00 0.00 72 1010.6
20260905213039 75 27 0.0 1.0 0.00 0.00 0.00 71 1010.5
20260905211541 75 27 0.0 0.0 0.00 0.00 0.00 70 1010.5
20260905210040 75 27 0.0 0.0 0.00 0.00 0.00 69 1010.4
20260905204538 75 27 0.0 2.0 0.00 0.00 0.00 68 1010.3
20260905203041 75 24 2.0 6.0 0.00 0.00 0.00 66 1010.2
20260905201538 75 61 0.0 5.0 0.00 0.00 0.00 66 1010.2
20260905200038 75 40 0.0 3.0 0.00 0.00 0.00 67 1010.2
20260905194537 75 53 1.0 4.0 0.00 0.00 0.00 66 1010.2
20260905193048 76 84 0.0 1.0 0.00 0.00 0.00 68 1010.1
20260905191536 75 55 0.0 1.0 0.00 0.00 0.00 69 1010.3
20260905190034 76 56 1.0 2.0 0.00 0.00 0.00 64 1010.3
20260905184533 76 77 0.0 2.0 0.00 0.00 0.00 65 1010.5
20260905183032 76 36 1.0 6.0 0.00 0.00 0.00 63 1010.5
20260905181532 76 40 2.0 7.0 0.00 0.00 0.00 62 1010.5
20260905180031 76 352 1.0 6.0 0.00 0.00 0.00 63 1010.6
20260905174530 76 30 2.0 5.0 0.00 0.00 0.00 62 1010.7
20260905173029 77 22 0.0 5.0 0.00 0.00 0.00 63 1010.8
20260905171534 76 61 0.0 3.0 0.00 0.00 0.00 65 1011.0
20260905170028 76 51 1.0 5.0 0.00 0.00 0.00 61 1011.2
20260905164528 77 19 2.0 6.0 0.00 0.00 0.00 61 1011.2
20260905163026 77 39 1.0 4.0 0.00 0.00 0.00 64 1011.3
20260905161524 75 49 1.0 3.0 0.00 0.00 0.00 65 1011.3
20260905160028 75 33 1.0 5.0 0.00 0.00 0.00 65 1011.4
20260905154524 75 19 1.0 4.0 0.00 0.00 0.00 64 1011.5
20260905153022 76 46 1.0 6.0 0.00 0.00 0.00 63 1011.5
20260905151520 75 56 1.0 6.0 0.00 0.00 0.00 67 1011.4
20260905150020 75 72 2.0 7.0 0.00 0.00 0.00 67 1011.5
20260905144519 74 200 0.0 4.0 0.00 0.00 0.00 72 1011.6
20260905143018 73 48 4.0 8.0 0.00 0.00 0.00 70 1011.4
20260905141514 73 68 3.0 7.0 0.00 0.00 0.00 71 1011.6
20260905140012 73 30 1.0 7.0 0.00 0.00 0.00 74 1011.5
20260905134510 72 40 3.0 6.0 0.00 0.00 0.00 75 1011.5
20260905133008 71 55 1.0 5.0 0.00 0.00 0.00 76 1011.5
20260905131509 71 61 2.0 6.0 0.00 0.00 0.00 78 1011.6
20260905130006 72 51 1.0 3.0 0.00 0.00 0.00 78 1011.9
20260905124503 71 210 0.0 0.0 0.00 0.00 0.00 83 1012.0
20260905123058 66 194 0.0 1.0 0.00 0.00 0.00 89 1012.2
20260905121600 64 201 0.0 0.0 0.00 0.00 0.00 95 1012.1
20260905120050 0 0.0 0.0 0.00 0.00 0.00 1012.2
20260905114546 0 0.0 0.0 0.00 0.00 0.00 1012.2
20260905113045 0 0.0 0.0 0.00 0.00 0.00 1011.9
20260905111536 0 0.0 0.0 0.00 0.00 0.00 1011.7
20260905110032 0 0.0 0.0 0.00 0.00 0.00 1011.3
20260905104528 0 0.0 0.0 0.00 0.00 0.00 1011.2
20260905103032 0 0.0 0.0 0.00 0.00 0.00 1011.1
20260905101519 0 0.0 0.0 0.00 0.00 0.00 1011.1
20260905100015 0 0.0 0.0 0.00 0.00 0.00 1010.9
20260905094512 0 0.0 0.0 0.00 0.00 0.00 1010.8
20260905093006 0 0.0 0.0 0.00 0.00 0.00 1010.9
20260905091502 0 0.0 0.0 0.00 0.00 0.00 1010.9
20260905090058 0 0.0 0.0 0.00 0.00 0.00 1010.8
20260905084556 0 0.0 0.0 0.00 0.00 0.00 1010.7
20260905083048 0 0.0 0.0 0.00 0.00 0.00 1010.8
20260905081545 0 0.0 0.0 0.00 0.00 0.00 1010.7
20260905080046 0 0.0 0.0 0.00 0.00 0.00 1010.8
20260905074536 0 0.0 0.0 0.00 0.00 0.00 1010.9
20260905073031 0 0.0 0.0 0.00 0.00 0.00 1010.8
20260905071527 0 0.0 0.0 0.00 0.00 0.00 1010.7
20260905070028 0 0.0 0.0 0.00 0.00 0.00 1010.7
20260905064519 0 0.0 0.0 0.00 0.00 0.00 1010.9
20260905063016 0 0.0 0.0 0.00 0.00 0.00 1010.9
20260905061510 0 0.0 0.0 0.00 0.00 0.00 1011.0
20260905060006 0 0.0 0.0 0.00 0.00 0.00 1011.1
20260905054502 0 0.0 0.0 0.00 0.00 0.00 1011.1
20260905053057 0 0.0 0.0 0.00 0.00 0.00 1011.2
20260905051600 0 0.0 0.0 0.00 0.00 0.00 1011.5
20260905050049 0 0.0 0.0 0.00 0.00 0.00 1011.7
20260905044546 0 0.0 0.0 0.00 0.00 0.00 1011.8
20260905043051 0 0.0 0.0 0.00 0.00 0.00 1011.8
20260905041536 0 0.0 0.0 0.00 0.00 0.00 1011.9
20260905040034 0 0.0 0.0 0.00 0.00 0.00 1011.9
20260905034532 0 0.0 0.0 0.00 0.00 0.00 1011.9
20260905033022 0 0.0 0.0 0.00 0.00 0.00 1011.9
20260905031527 0 0.0 0.0 0.00 0.00 0.00 1011.8
20260905030024 0 0.0 0.0 0.00 0.00 0.00 1011.8
20260905024509 64 207 0.0 0.0 0.00 0.00 0.00 94 1011.9
20260905023006 64 207 0.0 0.0 0.00 0.00 0.00 94 1011.9
20260905021600 64 207 0.0 0.0 0.00 0.00 0.00 94 1011.7
20260905020108 64 207 0.0 0.0 0.00 0.00 0.00 94 1011.9
20260905014554 64 207 0.0 0.0 0.00 0.00 0.00 93 1011.9
20260905013051 65 207 0.0 0.0 0.00 0.00 0.00 93 1011.9
20260905011622 65 207 0.0 0.0 0.00 0.00 0.00 93 1011.6
20260905010039 66 207 0.0 0.0 0.00 0.00 0.00 92 1011.8
20260905004534 66 207 0.0 0.0 0.00 0.00 0.00 92 1011.8
20260905003032 67 207 0.0 0.0 0.00 0.00 0.00 91 1011.6
20260905001524 68 207 0.0 0.0 0.00 0.00 0.00 90 1011.4
20260905000020 69 207 0.0 0.0 0.00 0.00 0.00 89 1011.3
20260904234519 70 207 0.0 0.0 0.00 0.00 0.00 88 1011.2
20260904233010 71 207 0.0 0.0 0.00 0.00 0.00 85 1011.1
20260904231507 72 207 0.0 0.0 0.00 0.00 0.00 83 1011.1
20260904230002 73 207 0.0 0.0 0.00 0.00 0.00 81 1011.1
20260904224558 74 207 0.0 0.0 0.00 0.00 0.00 79 1011.2